Regional Weather Roundup
Issued by NWS Sioux Falls, SD

Home | Current Version | Previous Version | Graphics & Text | Print | Product List | Glossary On
Versions: 1 2 3 4 5 6 7 8 9 10 11 12 13 14 15 16 17 18 19 20 21 22 23 24 25 26 27 28 29 30 31 32 33 34 35 36 37 38 39 40 41 42 43 44 45 46 47 48 49 50
000
ASUS43 KFSD 231502
RWRFSD

WEATHER ROUNDUP FOR SE SOUTH DAKOTA/SW MINNESOTA/NW IOWA
NATIONAL WEATHER SERVICE SIOUX FALLS SD
1000 AM CDT SUN APR 23 2017

NOTE: "FAIR" INDICATES FEW OR NO CLOUDS BELOW 12,000 FEET WITH NO
SIGNIFICANT WEATHER AND OR OBSTRUCTIONS TO VISIBILITY.


SDZ038>040-050-052>070-231600-
SOUTHEAST SOUTH DAKOTA

CITY           SKY/WX    TMP DP  RH WIND       PRES   REMARKS
BROOKINGS      MOSUNNY   60  36  40 S13       30.02F
CHAMBERLAIN    SUNNY     59  38  45 S17G23    29.97F
HURON          CLOUDY    52  38  58 CALM      30.00S
MADISON        FAIR      57  34  41 SW21G28   30.02F
MITCHELL       SUNNY     62  36  37 SW13G24   30.01F
SIOUX FALLS    MOSUNNY   59  37  44 SW14G20   30.04F
WINNER         FAIR      60  34  37 SW26G35   29.94F
YANKTON        SUNNY     61  34  36 S18G24    30.04F
$$

MNZ071-072-080-081-089-090-097-098-231600-
SOUTHWEST MINNESOTA

CITY           SKY/WX    TMP DP  RH WIND       PRES   REMARKS
FAIRMONT       SUNNY     62  33  33 W18       30.09F
JACKSON        SUNNY     61  30  31 SW17G23   30.09F
LUVERNE        SUNNY     61  32  33 SW16      30.07F
MARSHALL       MOSUNNY   49  40  71 SE5       30.06F
MONTEVIDEO     MOSUNNY   52  43  71 S9        30.06F
PIPESTONE      SUNNY     57  32  38 SW16      30.04F
REDWOOD FALLS  SUNNY     53  42  66 S3        30.07F
TRACY          MOSUNNY   52  43  71 CALM      30.07F
WINDOM         SUNNY     63  30  29 SW14      30.07F
WORTHINGTON    SUNNY     60  34  37 SW17      30.07F
$$

IAZ001>003-012>014-020>022-031-032-NEZ013-014-SDZ071-231600-
NORTHWEST IOWA

CITY           SKY/WX    TMP DP  RH WIND       PRES   REMARKS
CHEROKEE       SUNNY     59  40  49 S9        30.11F
DENISON        SUNNY     59  39  47 W8        30.15S
ESTHERVILLE    SUNNY     61  33  35 SW18      30.09F
LE MARS        SUNNY     59  39  47 S12G17    30.11F
ORANGE CITY    SUNNY     59  39  47 SW13      30.10S
SHELDON        SUNNY     61  34  36 SW17      30.07F
SIOUX CITY     SUNNY     61  37  41 S15       30.11F
SPENCER        SUNNY     62  34  35 MISG      30.10F
STORM LAKE     SUNNY     61  34  36 SW14G20   30.12F
$$

ABBREVIATIONS USED IN REMARKS
   TC - TEMPERATURE IN CELSIUS
  WCI - WIND CHILL INDEX
   HX - HEAT INDEX
  VSB - VISIBILITY





USA.gov is the U.S. government's official web portal to all federal, state and local government web resources and services.